Date String (YYYY-MM-DD hh:mm:ss) UTC,Instrument flags,Ambient pressure (hPa),Sample flow (lpm),Bypass flow (lpm),Sample temperature (°C),Ambient temperature (°C),ASC tube jacket temperature (°C),LED temperature (°C),Box temperature (°C),Sample RH (%),Span deviation,Mass concentration (μg/m³),Mass concentration (μg/m³),Mass concentration (μg/m³)
DateTimeUTC,F1_M11,P_M11,Q1_M11,Q2_M11,T1_M11,T2_M11,T3_M11,T4_M11,T5_M11,U1_M11,ZSPAN_M11,X2_M11,X0_M11,X1_M11
2021-09-27 08:00:00,,0826.2,5.01,0.00,29.6,28.0,00.0,38.9,31.3,10.3,0002.5,0006.27,0012.95,0005.22
2021-09-27 08:01:00,,0826.2,4.99,0.00,29.7,28.1,00.0,38.8,31.3,10.3,0002.2,0006.31,0012.72,0005.20
2021-09-27 08:02:00,,0826.2,5.01,0.00,29.7,28.3,00.0,38.8,31.4,10.4,0001.7,0006.34,0012.51,0005.18
2021-09-27 08:03:00,,0826.2,4.99,0.00,29.7,28.4,00.0,38.8,31.4,10.5,0001.7,0006.29,0012.78,0005.17
2021-09-27 08:04:00,,0826.2,4.99,0.00,29.7,28.5,00.0,38.8,31.5,10.4,0001.6,0006.31,0013.19,0005.15
2021-09-27 08:05:00,,0826.3,5.01,0.00,29.7,28.6,00.0,38.8,31.5,10.4,0001.6,0006.33,0013.33,0005.15
2021-09-27 08:06:00,,0826.2,5.00,0.00,29.7,28.6,00.0,38.8,31.5,10.3,0002.1,0006.31,0013.50,0005.14
2021-09-27 08:07:00,,0826.2,5.00,0.00,29.8,28.7,00.0,38.9,31.5,10.4,0001.2,0006.26,0013.79,0005.13
2021-09-27 08:08:00,,0826.2,4.99,0.00,29.8,28.7,00.0,38.9,31.5,10.2,0001.9,0006.26,0013.93,0005.13
2021-09-27 08:09:00,,0826.3,5.01,0.00,29.8,28.7,00.0,38.9,31.5,10.2,0001.5,0006.25,0014.51,0005.16
2021-09-27 08:10:00,,0826.3,4.99,0.00,29.8,28.8,00.0,38.9,31.6,10.3,0001.3,0006.21,0013.79,0005.17
2021-09-27 08:11:00,,0826.2,5.00,0.00,29.9,28.8,00.0,38.9,31.6,10.2,0001.5,0006.20,0013.45,0005.17
2021-09-27 08:12:00,,0826.3,5.01,0.00,29.9,28.8,00.0,38.9,31.6,10.2,0001.7,0006.25,0013.62,0005.19
2021-09-27 08:13:00,,0826.3,5.00,0.00,29.9,28.9,00.0,38.9,31.7,10.3,0002.4,0006.24,0013.56,0005.20
2021-09-27 08:14:00,,0826.3,4.99,0.00,29.9,28.9,00.0,38.9,31.7,10.3,0002.2,0006.31,0013.45,0005.21
2021-09-27 08:15:00,,0826.4,5.00,0.00,29.9,28.9,00.0,39.0,31.7,10.3,0002.3,0006.32,0013.27,0005.22
2021-09-27 08:16:00,,0826.3,5.01,0.00,30.0,29.0,00.0,39.0,31.7,10.3,0002.0,0006.28,0013.03,0005.22
2021-09-27 08:17:00,,0826.4,4.99,0.00,30.0,29.0,00.0,39.0,31.7,10.3,0001.8,0006.30,0012.95,0005.22
2021-09-27 08:18:00,,0826.3,5.02,0.00,30.0,29.0,00.0,39.0,31.7,10.3,0001.8,0006.30,0012.73,0005.23
2021-09-27 08:19:00,,0826.3,4.99,0.00,30.0,29.0,00.0,39.0,31.7,10.4,0001.7,0006.33,0013.54,0005.23
2021-09-27 08:20:00,,0826.3,4.99,0.00,30.0,29.0,00.0,39.0,31.8,10.2,0002.7,0006.34,0012.95,0005.23
2021-09-27 08:21:00,,0826.3,5.01,0.00,30.0,29.0,00.0,39.0,31.8,10.1,0003.1,0006.34,0013.05,0005.21
2021-09-27 08:22:00,,0826.3,4.98,0.00,30.1,29.0,00.0,39.1,31.8,10.1,0003.1,0006.34,0013.05,0005.22
2021-09-27 08:23:00,,0826.3,5.01,0.00,30.1,29.0,00.0,39.1,31.9,10.1,0002.9,0006.30,0013.50,0005.20
2021-09-27 08:24:00,,0826.4,5.01,0.00,30.1,29.1,00.0,39.1,31.9,10.2,0002.6,0006.31,0014.98,0005.21
2021-09-27 08:25:00,,0826.4,4.99,0.00,30.1,29.1,00.0,39.1,31.9,10.2,0002.5,0006.31,0015.24,0005.21
2021-09-27 08:26:00,,0826.4,5.00,0.00,30.1,29.1,00.0,39.1,31.9,10.1,0003.1,0006.29,0015.18,0005.22
2021-09-27 08:27:00,,0826.4,5.01,0.00,30.2,29.1,00.0,39.2,31.9,10.1,0003.4,0006.29,0015.49,0005.23
2021-09-27 08:28:00,,0826.4,4.99,0.00,30.2,29.2,00.0,39.2,32.0,10.1,0003.3,0006.33,0016.04,0005.22
2021-09-27 08:29:00,,0826.4,5.00,0.00,30.2,29.2,00.0,39.2,32.0,10.0,0003.3,0006.34,0016.12,0005.21
2021-09-27 08:30:00,,0826.4,5.00,0.00,30.2,28.8,00.0,39.2,31.9,10.0,0002.8,0006.33,0014.86,0005.21
2021-09-27 08:31:00,,0826.3,5.01,0.00,30.1,26.9,00.0,39.2,31.4,10.1,0001.8,0006.31,0014.58,0005.21
2021-09-27 08:32:00,,0826.2,4.98,0.00,29.9,26.2,00.0,39.2,31.2,10.2,0001.6,0006.36,0014.83,0005.23
2021-09-27 08:33:00,,0826.4,5.00,0.00,29.8,26.5,00.0,39.1,31.2,10.3,0001.5,0006.36,0014.74,0005.21
2021-09-27 08:34:00,,0826.2,5.01,0.00,29.8,26.9,00.0,39.0,31.2,10.3,0002.2,0006.36,0014.43,0005.22
2021-09-27 08:35:00,,0826.2,4.99,0.00,29.7,27.3,00.0,39.0,31.2,10.3,0002.5,0006.31,0013.84,0005.20
2021-09-27 08:36:00,,0826.2,5.00,0.00,29.7,27.6,00.0,39.0,31.3,10.3,0002.8,0006.27,0013.32,0005.19
2021-09-27 08:37:00,,0826.2,4.99,0.00,29.7,27.8,00.0,39.0,31.3,10.3,0002.5,0006.23,0013.94,0005.17
2021-09-27 08:38:00,,0826.2,5.01,0.00,29.7,28.0,00.0,38.9,31.4,10.3,0002.6,0006.21,0013.71,0005.16
2021-09-27 08:39:00,,0826.2,4.99,0.00,29.7,28.2,00.0,38.9,31.4,10.3,0003.1,0006.24,0013.41,0005.16
2021-09-27 08:40:00,,0826.2,5.01,0.00,29.8,28.3,00.0,38.9,31.5,10.2,0003.3,0006.24,0013.27,0005.14
2021-09-27 08:41:00,,0826.2,4.99,0.00,29.8,28.4,00.0,38.9,31.5,10.2,0003.4,0006.27,0013.44,0005.13
2021-09-27 08:42:00,,0826.2,5.00,0.00,29.8,28.5,00.0,38.9,31.5,10.3,0003.6,0006.27,0013.44,0005.12
2021-09-27 08:43:00,,0826.2,5.01,0.00,29.8,28.6,00.0,38.9,31.5,10.3,0003.5,0006.19,0013.24,0005.11
2021-09-27 08:44:00,,0826.2,4.99,0.00,29.8,28.6,00.0,38.9,31.5,10.2,0002.9,0006.14,0013.48,0005.11
2021-09-27 08:45:00,,0826.2,5.01,0.00,29.8,28.7,00.0,38.9,31.5,10.2,0002.7,0006.13,0013.34,0005.10
2021-09-27 08:46:00,,0826.2,4.99,0.00,29.9,28.7,00.0,38.9,31.6,10.2,0002.1,0006.12,0012.12,0005.09
2021-09-27 08:47:00,,0826.2,5.00,0.00,29.9,28.8,00.0,38.9,31.6,10.2,0001.5,0006.10,0012.00,0005.08
2021-09-27 08:48:00,,0826.2,4.99,0.00,29.9,28.8,00.0,38.9,31.7,10.3,0001.3,0006.13,0011.57,0005.07
2021-09-27 08:49:00,,0826.2,5.00,0.00,29.9,28.8,00.0,39.0,31.7,10.3,0000.6,0006.16,0012.14,0005.07
2021-09-27 08:50:00,,0826.2,4.99,0.00,29.9,28.8,00.0,39.0,31.7,10.2,0000.4,0006.11,0012.36,0005.06
2021-09-27 08:51:00,,0826.3,5.00,0.00,30.0,28.8,00.0,39.0,31.7,10.2,0000.8,0006.14,0013.65,0005.07
2021-09-27 08:52:00,,0826.2,5.01,0.00,30.0,28.9,00.0,39.0,31.7,10.2,0000.8,0006.12,0013.63,0005.06
2021-09-27 08:53:00,,0826.2,5.00,0.00,30.0,28.9,00.0,39.0,31.7,10.3,0001.3,0006.12,0013.56,0005.06
2021-09-27 08:54:00,,0826.2,4.99,0.00,30.0,28.9,00.0,39.0,31.7,10.2,0002.2,0006.17,0013.44,0005.06
2021-09-27 08:55:00,,0826.3,5.01,0.00,30.0,29.0,00.0,39.0,31.7,10.2,0002.3,0006.23,0013.47,0005.07
2021-09-27 08:56:00,,0826.3,4.99,0.00,30.1,29.0,00.0,39.1,31.8,10.2,0001.9,0006.21,0013.44,0005.08
2021-09-27 08:57:00,,0826.3,5.02,0.00,30.1,29.0,00.0,39.1,31.8,10.2,0001.9,0006.20,0013.78,0005.09
2021-09-27 08:58:00,,0826.3,4.98,0.00,30.1,29.0,00.0,39.1,31.8,10.1,0002.2,0006.23,0014.21,0005.11
2021-09-27 08:59:00,,0826.3,5.01,0.00,30.1,29.0,00.0,39.1,31.9,10.1,0002.1,0006.25,0014.25,0005.12
